CAPE
3577 3441 3160 3023 2908 2843 3082 2976 2720 2592 2641 2667 2556 2337 2128 2115 2095 1933 2000 2086 2136 2262 2262 2190 2014 2179 1966 1635 1240 1169 1377 1042 1166 946 1036 807 821 897 883 949 929 796
3642 3635 3339 3094 3071 3019 3012 3077 2887 2672 2681 2836 2706 2523 2308 2174 2237 2022 2053 1969 2104 2196 2380 2229 1892 2168 2114 1606 1448 1200 1315 1116 1097 994 1010 892 838 843 915 988 885 901
3642 3692 3505 3281 3261 3267 3200 3120 3009 2816 2636 2680 2818 2603 2475 2387 2428 2188 2066 1925 2026 2218 2445 2378 2222 2035 1783 1622 1521 1324 1186 990 774 898 795 634 649 679 793 755 802 767
3745 3716 3625 3569 3413 3287 3023 3004 2936 2767 2498 2708 2781 2278 2425 2305 2343 2196 1988 1942 2018 2319 2416 2326 2088 1751 1723 1690 1572 1223 1195 1061 776 801 740 609 565 514 632 582 660 677
3837 3785 3641 3509 3417 3294 3274 2908 2859 2550 2566 2814 2868 2525 2423 2466 2294 2100 2066 1995 2040 2254 2328 2212 1948 1601 1551 1682 1346 1319 1015 946 842 746 641 421 388 357 418 424 447 398
3724 3604 3656 3581 3582 3438 3265 2978 2873 2709 2596 2681 2926 2560 2292 2017 2008 2046 2156 1948 1935 2140 1952 2072 1546 1566 1441 1261 1402 1240 1078 852 781 587 446 366 370 351 178 72 195 75
3594 3647 3605 3537 3582 3491 3366 3061 2970 2547 2185 2590 2669 2470 2280 2288 2152 2042 1959 1686 1869 1806 1932 1753 1706 1826 1664 1416 1398 1024 1000 596 681 463 388 279 320 205 85 97 96 74
3507 3611 3525 3554 3539 3570 3524 3164 3040 2950 2829 2641 2633 2452 2209 1810 2219 2023 2020 1849 1834 1578 1619 1832 1631 1801 1648 1393 1209 781 726 641 794 371 223 309 226 224 68 9 8 6
3552 3517 3431 3612 3579 3664 3558 3256 3203 3144 2723 2696 2636 2513 2143 2079 2299 2148 2143 1824 1568 1575 1602 1876 1776 1650 1554 992 894 844 812 709 547 499 408 314 204 83 4 0 0 0
3508 3432 3405 3386 3530 3634 3577 3577 3300 3117 2814 2773 2619 2482 2398 2441 2302 2247 1639 1645 1521 1411 1468 1620 1588 1576 1454 968 961 958 848 736 654 482 448 232 38 5 0 0 0 0
3509 3448 3419 3436 3540 3569 3651 3586 3437 3227 2918 2639 2666 2581 2537 2416 2397 1909 1885 1691 1871 1580 1269 1453 1594 1560 1206 1061 1102 960 820 748 713 546 423 216 20 0 0 0 0 0
3664 3537 3349 3358 3409 3591 3610 3622 3521 3208 2850 2771 2652 2515 2607 2559 2509 1907 1823 1987 1852 1476 1308 1183 1553 1467 1139 1005 1024 927 818 803 724 495 386 137 1 0 0 0 0 0
3476 3293 3356 3387 3422 3434 3660 3632 3495 3352 3019 2700 2432 2592 2724 2661 2460 2278 2232 1779 1708 1724 1240 1165 1232 1398 1141 1012 871 793 890 893 766 477 312 327 3 0 0 0 0 0
3421 3367 3350 3329 3296 3276 3359 3630 3550 3407 2964 2648 2620 2720 2686 2711 2522 2316 2358 2124 2116 1653 1357 1413 1460 1478 1213 1173 890 802 1037 878 797 488 398 336 0 0 0 0 0 0
3383 3277 3220 3231 3126 3101 3212 3356 3412 3327 3151 2802 2626 2634 2674 2545 2526 2383 2378 2208 1910 1716 1429 1362 1435 1475 1270 926 852 1088 1142 967 826 597 438 378 145 0 0 0 0 0
3323 3355 3246 3134 2946 3016 3193 3337 3336 3275 3058 2882 2689 2532 2561 2520 2388 2440 2291 2272 1935 1715 1740 1331 1350 1307 913 889 1165 1270 1198 997 839 655 508 478 545 244 96 0 0 0
3385 3238 3085 2946 2749 2746 2872 3117 3210 3133 3047 2852 2476 2404 2406 2472 2452 2298 2282 2233 1886 1670 1526 1461 1443 993 809 1076 1356 1268 1142 1102 946 721 563 470 615 508 410 269 0 0
3205 3148 2992 2848 2751 2719 2665 2789 3143 3017 2964 2892 2655 2456 2405 2454 2454 2342 2207 2180 1990 1700 1550 1496 1473 944 895 1098 1349 1243 1146 1063 978 842 657 475 535 526 400 308 0 0
3174 3143 3024 2839 2748 2643 2659 2811 2925 3018 2791 2766 2590 2513 2427 2453 2431 2336 2158 2048 1932 1658 1713 1310 1112 978 922 1152 1330 1257 1144 981 896 861 773 531 522 463 334 287 13 0
3226 3104 2984 2827 2686 2545 2409 2488 2867 2902 2817 2562 2360 2321 2420 2436 2391 2234 2144 2033 1877 1611 1446 1392 1171 981 954 1159 1385 1232 1115 977 959 770 702 534 516 343 292 242 187 0
3240 3001 2854 2733 2669 2555 2477 2500 2774 2698 2794 2602 2308 2273 2296 2397 2024 2193 2088 1922 1799 1591 1444 1478 1243 1028 963 1192 1393 1220 1093 1040 965 775 593 534 447 326 216 246 40 52
3117 2861 2642 2704 2662 2504 2479 2468 2575 2674 2754 2337 2130 2211 2220 2123 2092 1955 1997 1884 1768 1441 1391 1524 1323 1043 1013 1193 1360 1185 1084 1066 950 794 563 532 420 322 265 282 250 225
2970 2776 2718 2716 2538 2392 2448 2510 2569 2536 2659 2498 2226 2174 2107 2088 1970 1871 1852 1628 1489 1493 1459 1558 1375 1096 1053 1187 1329 1190 1144 1120 994 854 584 474 418 283 285 326 333 314
2906 2798 2739 2640 2554 2336 2430 2446 2544 2626 2514 2051 2070 1949 1971 1861 1794 1651 1725 1559 1514 1596 1532 1549 1393 1124 1094 1202 1276 1213 1183 1167 1048 870 566 455 417 306 282 356 377 388
2630 2587 2663 2613 2421 2311 2568 2411 2507 2398 2272 1921 1859 1990 1900 1778 1408 1482 1468 1393 1496 1655 1692 1581 1538 1338 1064 1155 1230 1272 1197 1146 1003 926 541 407 422 367 301 317 372 416
2648 2599 2530 2466 2419 2415 2334 2460 2455 2342 2153 1768 1826 1683 1831 1690 1441 1339 1580 1394 1510 1667 1700 1659 1640 1485 1109 1134 1323 1304 1214 1122 954 839 562 403 397 371 340 351 347 416
Wind_Speed
30 34 33 31 28 28 28 29 32 33 33 33 32 33 34 34 34 33 33 32 30 28 28 27 28 27 27 26 25 23 22 23 23 22 19 18 16 15 15 18 19 19
30 33 34 30 29 29 28 28 31 33 33 34 34 36 36 35 35 34 33 33 31 28 29 28 28 28 28 27 25 23 22 23 22 20 19 18 16 15 15 16 18 19
33 34 33 28 28 28 28 30 30 33 34 35 35 36 37 37 37 36 34 33 32 30 29 29 28 28 28 28 27 24 23 22 21 20 19 18 18 17 17 17 17 19
39 36 32 29 28 28 29 31 30 30 33 36 36 36 38 38 39 39 37 36 33 30 28 29 29 29 29 29 28 25 23 22 21 21 20 18 17 16 18 21 20 20
42 38 33 29 29 29 32 31 29 29 32 36 37 37 39 39 41 42 39 37 35 31 28 28 30 30 29 29 29 26 24 22 22 22 20 18 17 15 15 18 20 20
41 38 34 30 28 29 31 31 29 28 31 35 38 37 39 41 42 43 43 41 37 32 29 28 30 31 30 30 30 27 25 23 23 22 20 18 18 18 16 nan 17 nan
38 37 33 30 27 28 31 30 31 31 31 34 38 37 39 42 43 44 44 42 40 34 30 29 31 32 31 29 30 28 25 24 23 22 20 19 18 19 nan nan nan nan
36 35 34 32 29 29 32 31 31 32 33 37 37 37 39 42 45 44 45 45 41 35 30 31 31 32 32 30 30 28 26 25 22 24 21 19 19 19 nan nan nan nan
36 35 35 32 31 31 31 32 33 34 35 37 37 38 40 43 45 46 47 46 43 37 32 33 32 32 33 31 30 29 27 25 23 24 22 20 20 nan nan nan nan nan
36 37 36 35 33 32 30 33 35 36 36 37 37 38 41 43 45 46 46 45 42 37 33 33 33 32 34 32 29 29 28 26 26 28 25 22 nan nan nan nan nan nan
40 40 40 36 34 34 32 33 34 37 37 37 37 38 41 44 44 45 45 44 42 39 35 34 34 33 34 32 28 29 28 27 27 28 26 23 nan nan nan nan nan nan
43 43 41 37 34 33 31 33 35 36 37 37 37 38 41 44 44 46 45 44 42 39 36 35 34 33 34 31 28 30 29 28 28 28 27 22 nan nan nan nan nan nan
43 43 43 38 36 35 35 35 36 38 37 36 38 40 41 43 45 46 45 42 42 39 35 34 33 32 32 31 28 30 31 31 31 30 26 22 nan nan nan nan nan nan
43 43 43 39 38 36 35 38 37 36 36 37 41 42 41 42 45 46 46 42 40 38 35 34 34 32 31 31 29 31 32 33 33 31 28 25 nan nan nan nan nan nan
45 45 46 43 41 38 36 37 38 37 39 41 42 42 42 42 45 47 46 42 39 37 35 33 33 32 31 31 31 34 35 35 34 32 29 26 25 nan nan nan nan nan
46 47 48 46 43 39 37 36 37 39 41 42 43 42 42 43 45 47 46 42 38 37 35 34 33 30 34 38 37 36 36 36 35 33 29 25 25 26 nan nan nan nan
49 49 49 47 44 40 38 36 38 42 43 41 44 45 44 44 45 46 46 40 35 35 36 35 34 33 43 43 42 40 38 37 36 34 29 27 26 27 28 29 nan nan
51 51 50 48 46 44 41 41 42 43 43 44 46 46 45 45 43 45 46 39 32 33 35 37 35 42 46 46 43 41 38 38 37 35 32 29 28 28 29 30 nan nan
52 54 52 50 49 47 45 44 43 45 43 44 46 48 47 44 43 45 45 37 31 32 36 38 37 45 46 47 45 42 41 40 38 37 35 32 30 30 30 30 nan nan
52 54 53 52 52 50 48 46 45 43 44 46 49 51 48 44 43 45 44 37 31 32 36 39 40 44 47 46 45 43 42 39 39 37 35 34 33 31 31 31 31 nan
51 51 51 52 52 52 50 47 46 44 46 50 53 49 46 45 44 46 44 38 31 32 37 40 41 47 46 46 45 44 41 38 38 38 35 34 34 33 32 31 nan nan
48 49 50 50 51 52 50 47 45 46 47 49 53 50 46 45 48 46 43 37 33 33 39 41 43 48 47 46 46 44 43 38 37 34 34 35 36 35 33 31 32 33
46 46 48 47 49 50 49 46 46 44 48 54 55 52 48 47 48 46 42 39 35 32 39 42 44 45 49 48 47 47 43 38 37 36 36 37 38 36 34 32 32 34
45 45 45 45 47 47 47 46 45 46 48 54 52 50 50 49 48 45 42 39 34 33 38 43 44 45 49 48 48 47 44 41 38 36 38 39 39 37 35 34 34 37
45 44 44 44 45 46 47 44 44 45 52 56 52 51 51 50 48 45 42 40 34 33 40 44 44 44 48 49 47 46 44 41 40 39 39 40 39 39 38 36 36 38
47 45 45 44 44 44 44 41 44 50 59 57 53 50 51 51 48 45 42 37 35 35 41 41 44 43 44 48 46 45 44 43 41 40 39 40 39 40 39 37 37 38
Wind_Direction
262 267 273 270 265 261 265 271 276 281 284 288 292 295 300 305 311 316 322 323 322 317 315 317 316 315 316 319 317 312 308 306 311 311 318 319 319 324 327 330 333 328
264 268 268 263 257 256 262 271 275 280 284 287 291 293 296 303 309 315 319 324 321 315 314 316 315 315 317 316 314 311 308 307 311 309 307 312 310 314 322 328 326 325
263 265 266 261 255 259 263 268 272 273 280 286 289 292 296 301 307 312 317 321 319 312 314 314 313 313 315 315 313 311 309 309 311 306 304 305 307 314 321 320 319 327
263 261 257 251 250 255 261 264 270 276 279 282 288 293 296 299 305 311 314 320 318 312 312 313 312 312 314 315 315 309 308 307 305 303 302 299 304 315 318 317 320 324
261 255 248 243 245 251 255 264 274 280 281 281 285 291 297 301 304 308 311 315 316 312 309 312 310 311 313 314 318 312 306 301 300 300 301 305 306 308 313 318 319 325
258 253 248 243 244 251 257 264 273 280 281 282 285 290 298 303 304 307 309 314 316 312 309 310 309 306 313 317 315 310 304 301 298 303 307 309 308 307 311 nan 321 nan
252 248 246 241 244 253 258 265 266 272 277 281 283 290 296 299 302 305 309 312 315 313 312 308 305 304 306 310 310 311 305 306 307 306 308 307 306 310 nan nan nan nan
251 240 238 239 242 250 257 264 269 270 272 277 284 290 294 297 299 301 304 310 313 316 313 309 308 306 306 307 309 311 304 301 307 306 309 308 306 310 nan nan nan nan
250 240 239 242 244 248 257 263 266 268 272 276 280 284 290 293 297 300 304 309 313 314 313 308 306 303 301 306 309 314 311 306 308 307 306 307 306 nan nan nan nan nan
252 244 243 243 246 248 256 261 264 266 269 274 278 281 287 288 294 301 303 307 311 314 313 306 305 300 300 303 313 315 312 310 303 298 298 300 nan nan nan nan nan nan
255 248 242 243 245 247 254 259 263 265 267 274 276 279 285 288 292 297 302 307 309 314 314 307 302 298 298 301 308 309 310 306 300 297 295 297 nan nan nan nan nan nan
254 247 240 242 247 248 252 255 259 262 266 268 274 280 283 287 292 295 298 305 309 313 313 308 302 298 298 305 311 310 307 304 296 294 292 296 nan nan nan nan nan nan
254 247 239 241 245 248 249 253 258 260 265 270 271 276 281 286 289 295 294 301 306 310 312 308 302 298 300 302 310 310 307 299 293 291 294 295 nan nan nan nan nan nan
249 244 239 240 243 246 249 250 255 260 264 267 269 274 280 285 289 292 291 296 304 308 308 301 297 296 300 302 306 305 299 294 291 289 292 293 nan nan nan nan nan nan
244 240 236 238 241 243 247 249 252 255 260 264 269 271 274 281 284 287 290 298 305 308 307 301 299 298 298 299 301 299 295 293 291 291 292 292 296 nan nan nan nan nan
245 240 238 238 240 242 246 251 253 255 258 264 269 273 275 277 281 283 288 295 303 305 301 298 296 296 294 299 294 292 294 291 288 289 293 295 296 299 nan nan nan nan
246 244 242 242 242 244 248 253 256 255 260 266 267 270 273 275 277 281 284 293 302 304 303 299 294 290 292 293 292 293 293 291 289 289 293 295 296 299 301 304 nan nan
245 247 246 245 246 249 251 254 255 257 259 262 264 269 269 272 277 279 283 289 293 299 302 296 291 286 295 292 292 294 292 290 288 287 289 291 294 298 300 303 nan nan
243 247 248 248 249 252 252 255 258 258 260 261 264 265 265 270 275 277 280 289 292 301 299 295 288 292 295 295 294 294 292 290 288 286 288 291 293 298 301 304 nan nan
243 246 247 249 251 252 254 257 258 260 259 258 258 260 261 266 274 277 278 284 291 300 298 293 288 296 298 297 296 294 293 290 287 287 286 290 294 297 299 305 309 nan
243 246 248 249 252 253 254 256 256 256 256 255 255 259 262 264 271 273 274 280 289 298 293 292 285 299 299 298 297 296 295 290 287 287 286 288 291 294 298 303 nan nan
245 246 248 250 252 254 255 255 255 254 255 256 255 256 259 263 263 268 274 281 288 297 290 291 284 300 299 299 298 296 296 285 286 290 289 287 288 291 296 301 305 307
246 248 250 251 253 255 255 255 254 254 252 252 253 253 258 263 264 267 272 277 286 296 291 287 285 298 299 299 299 298 292 285 285 286 287 287 287 291 295 298 302 306
246 248 251 252 253 255 256 253 253 250 252 251 255 258 259 261 262 266 270 277 287 298 291 285 283 294 299 299 300 300 296 289 288 291 288 287 288 290 291 293 300 305
242 245 248 251 252 254 253 253 250 250 249 250 252 254 257 258 261 264 270 275 285 290 285 283 282 292 299 299 301 301 297 288 289 289 291 290 289 290 290 291 294 296
236 240 244 248 250 250 250 250 246 243 243 247 249 253 254 258 261 265 272 280 284 285 278 281 282 286 294 300 302 302 301 290 287 289 291 291 290 289 290 291 293 297